Home   Weather   Vatican City   Past weeks

Flag for Vatican City State Past Weather in Vatican City, Vatican City State — Yesterday and Last 2 Weeks

Now
75 °F

Passing clouds.


Feels Like: 76 °F
Forecast: 67 / 86 °F
Wind: 9 mph from Northwest

Location: Rome / Ciampino

Current Time: Aug 30, 2016 at 11:00:16 PM

Latest Report: Aug 30, 2016 at 10:20 PM


Visibility: N/A

Pressure: 30.09 "Hg

Humidity: 78%

Dew Point: 68 °F

Location of Vatican CityLocation

Past Weather in Vatican City — Graph

°F

Vatican City Temperature Yesterday

Maximum temperature yesterday: 86 °F (at 12:20 PM)
Minimum temperature yesterday: 64 °F (at 6:20 AM)
Average temperature yesterday: 76 °F

High & Low Weather Summary for the Past Weeks

 TemperatureHumidityPressure
High91 °F (Aug 25, 2:50 PM)100% (Aug 17, 1:20 AM)30.12 "Hg (Aug 17, 1:20 AM)
Low64 °F (Aug 16, 4:20 AM)25% (Aug 22, 6:50 PM)29.86 "Hg (Aug 18, 4:50 AM)
Average77 °F59%30.01 "Hg
* Reported Aug 15 9:20 PM — Aug 30 9:50 PM, Vatican City, Weather by CustomWeather, © 2016

Note: Actual official high and low records may vary slightly from our data, if they occured in-between our weather recording intervals... More about our weather records

Advertising

Vatican City Weather History for the Previous 24 Hours

Scroll right to see more
 ConditionsComfort  
Time TempWeatherWind HumidityBarometerVisibility
9:50 PM
Tue, Aug 30
77 °FPassing clouds.6 mph74%30.09 "HgN/A
9:20 PM77 °FPassing clouds.2 mph79%30.07 "HgN/A
8:50 PM77 °FPassing clouds.3 mph74%30.07 "HgN/A
8:20 PM77 °FPartly sunny.6 mph74%30.04 "HgN/A
7:50 PM77 °FPartly sunny.5 mph74%30.04 "HgN/A
7:20 PM79 °FPartly sunny.3 mph65%30.04 "HgN/A
6:50 PM79 °FPassing clouds.6 mph70%30.04 "HgN/A
6:20 PM79 °FPassing clouds.6 mph70%30.01 "HgN/A
5:20 PM81 °FPassing clouds.7 mph62%30.01 "HgN/A
4:50 PM82 °FPassing clouds.8 mph58%30.01 "HgN/A
4:20 PM84 °FPassing clouds.10 mph48%30.01 "HgN/A
3:50 PM86 °FPassing clouds.9 mph49%30.01 "HgN/A
3:20 PM86 °FPassing clouds.8 mph52%30.04 "HgN/A
2:50 PM86 °FPassing clouds.8 mph49%30.04 "HgN/A
2:20 PM86 °FPassing clouds.7 mph49%30.04 "HgN/A
1:50 PM84 °FPassing clouds.7 mph55%30.04 "HgN/A
1:20 PM84 °FPassing clouds.9 mph55%30.04 "HgN/A
12:50 PM86 °FPassing clouds.6 mph49%30.04 "HgN/A
12:20 PM84 °FPassing clouds.5 mph51%30.07 "HgN/A
11:50 AM84 °FSunny.5 mph51%30.07 "Hg10 mi
11:20 AM82 °FPassing clouds.5 mph51%30.07 "HgN/A
10:50 AM81 °FSunny.5 mph58%30.07 "Hg10 mi
10:20 AM81 °FPassing clouds.5 mph58%30.07 "HgN/A
9:50 AM77 °FPassing clouds.5 mph65%30.07 "HgN/A
9:20 AM77 °FPassing clouds.5 mph69%30.04 "HgN/A
8:50 AM75 °FSunny.2 mph65%30.04 "Hg10 mi
8:20 AM73 °FSunny.1 mph61%30.04 "Hg10 mi
7:50 AM72 °FSunny.2 mph65%30.04 "Hg10 mi
7:20 AM68 °FClear.5 mph69%30.01 "Hg10 mi
6:50 AM66 °FClear.5 mph73%30.01 "Hg10 mi
6:20 AM66 °FClear.5 mph68%30.01 "Hg10 mi
5:50 AM66 °FPassing clouds.3 mph73%30.01 "HgN/A
5:20 AM66 °FPassing clouds.3 mph68%30.01 "HgN/A
4:50 AM68 °FPassing clouds.2 mph64%30.01 "HgN/A
4:20 AM68 °FPassing clouds.5 mph64%30.01 "HgN/A
3:50 AM68 °FPassing clouds.3 mph69%30.01 "HgN/A
3:20 AM68 °FClear.5 mph69%30.01 "Hg10 mi
2:50 AM68 °FClear.5 mph64%30.01 "Hg10 mi
2:20 AM68 °FClear.5 mph69%30.04 "Hg10 mi
1:50 AM70 °FClear.2 mph60%30.04 "Hg10 mi
1:20 AM70 °FClear.6 mph64%30.04 "Hg10 mi
12:50 AM70 °FClear.5 mph69%30.04 "Hg10 mi
12:20 AM70 °FClear.3 mph73%30.04 "Hg10 mi
11:50 PM
Mon, Aug 29
70 °FClear.5 mph78%30.04 "Hg10 mi
11:20 PM72 °FClear.5 mph73%30.04 "Hg10 mi
Weather by CustomWeather, © 2016

See weather overviewHow to use our weather pages